Location: Enikep?du
(16.5133°N, 80.7066°E)
Time: 04:33:50
(UTC+00:00)

RESURS DK-1 - Pass Details

Date: 20 January 2020
Orbit: 554 x 564 km, 69.9° (Epoch: 16 February)

Event Time Altitude Azimuth Distance (km) Brightness Sun altitude
Rises 00:32:37 0° 185° (S) 2,717 6.1 -9.1°
Reaches altitude 10° 00:34:53 10° 178° (S) 1,826 5.3 -8.6°
Maximum altitude 00:38:45 43° 106° (ESE) 784 3.8 -7.7°
Drops below altitude 10° 00:42:39 10° 34° (NE) 1,834 5.2 -6.8°
Sets 00:44:55 0° 28° (NNE) 2,732 6.0 -6.3°
